Starlink 2494

operational
NORAD ID: 48487 Int'l Des: 2021-040 Owner: SPXS Country: US Constellation: starlink
LEOCIRCULARSTARLINK_TYPE

About Starlink 2494

Description loading...

Live Position

Loading 3D Globe...

Upcoming Passes

Altitude History

Altitude vs Time

uPlot chart will show altitude changes over time

Two-Line Element Set

1 48487U 21040BM 25307.70895198 .00001949 00000-0 14974-3 0 9993
2 48487 53.0543 47.1665 0001652 83.9217 276.1960 15.06395700247365
Epoch: Nov 3, 2025 • Age: 10 hours

Current Status

Altitude 546.9 km
Velocity 7.59 km/s
Sub-Earth Point 14.93°N, 26.51°W
Launch Date May 9, 2021
Age 4.4 years
Type internet

Technical Details

Classification Payload
Mass 260.00 kg
Dry Mass 248.00 kg
Total Mass 260.00 kg
Length 0.20 m
Diameter 2.80 m
Span 9.00 m
Shape Box + pan
Manufacturer SPXS
Bus Type Starlink
Phase Status In Orbit
Owner/State SPXS/US

Large Constellations

Loading constellations...